Погода в Новотроицком

Украина / Донецкая область     48°34′43″N   37°13′05″E
темп.,
°C
ветер,
м/с
пор.,
м/с
влажн.,
%
обл.,
%
осадки,
мм/ч
давл.,
гПа
погр.,
м
20 мая, пт
пт2000:00+10сз347292 0.0 101744
03:00+11зсз4865100 0.0 1016155
06:00+10зсз498415 0.3 1017246
09:00+15зсз686349 0.3 1018847
12:00+18сз784653 0.0 10172193
15:00+18сз5853100 0.0 10161709
18:00+18сз475984 0.3 10161405
21:00+13сз1174100 0.4 101616
21 мая, сб
сб2100:00+13зсз1182100 0.1 101523
03:00+12з2594100 0.1 1014140
06:00+13ююз41088100 0.0 1012365
09:00+17зюз81373100 0.0 1010619
12:00+22з91358100 0.0 10081619
15:00+21з81368100 1.6 10071564
18:00+20з71266100 0.3 1006829
21:00+15зюз6149395 0.9 1007748
22 мая, вс
вс2200:00+16зюз7139683 0.1 1005618
03:00+16з81391100 0.3 1004810
06:00+13з6109433 0.2 1003632
09:00+15з797252 0.3 10021161
12:00+18з81253100 0.1 10012083
15:00+15з8136361 0.3 10011533
18:00+13зсз8147265 0.6 10011206
21:00+10зсз6979100 0.6 1002958
23 мая, пн
пн2300:00+10з4885100 0.1 1002622
03:00+9сз468789 0.4 1003443
06:00+8ссз3490100 0.1 1004430
09:00+7св5992100 0.9 1006645
12:00+10св5774100 0.3 10071042
15:00+12ссв5759100 0.4 10071451
18:00+12ссв3660100 0.0 10081102
21:00+10с356499 0.1 1009103
24 мая, вт
вт2400:00+7с337684 0.0 101129
03:00+5ссз33825 0.0 101231
06:00+6ссз35795 0.0 1013142
09:00+13ссз34555 0.0 10131014
12:00+14ссз3445100 0.1 10132029
15:00+15сз454647 0.1 10141778
18:00+15з455083 0.0 10151476
21:00+12сз356087 0.0 101799